{"data":{"norad_id":68949,"epoch":"2026-09-19T23:51:06.314976Z","epoch_age_seconds":62990,"freshness":"FRESH","line1":"1 68949U 26098AG  26262.99382309  .00000199  00000+0  55078-4 0  9999","line2":"2 68949  51.9023   3.9250 0001522 142.8320 217.2748 14.79931393 21459","mean_motion":14.79931393,"eccentricity":0.0001522,"inclination_deg":51.9023,"raan_deg":3.925,"arg_perigee_deg":142.832,"mean_anomaly_deg":217.2748,"bstar":5.5078e-5,"rev_number":2145,"period_min":97.30180782779,"perigee_km":628.47413353411,"apogee_km":630.60727062663,"semimajor_km":7007.6777020804,"source":"CELESTRAK","updated_at":"2026-09-20T09:00:24.585891Z"}}